Back to catalog

GLOBAL-9

AliveCommunicationsVLEO
NORAD 47971·PAYLOAD·🇺🇸 United States

Launched Mar 22, 2021 from Rocket Lab Launch Complex 1

Loading…

Next Passes (next 24 hours)

TLE

FreshSource: Space-Track

Epoch: Sep 14, 2026, 14:43 UTC

1 47971U 21023G   26257.61338753  .00019543  00000-0  34712-3 0  9996
2 47971  44.9795 106.6313 0004288 209.9822 150.0824 15.49936170308806

Track GLOBAL-9 in real time with AllMySat

Download on the App Store